Hourly Data Report for September 24, 2017

All times are specified in Local Standard Time (LST). Add 1 hour to adjust for Daylight Saving Time where and when it is observed.

ENNADAI LAKE (AUT)
NUNAVUT

61°07'55.000" N
100°53'02.000" W
353.10 m
2301102
71923
WJC

Download Data

Hourly Data (September 2017)
Hourly Data Report for September 24, 2017
Temp Definition
°C
Dew Point Temp Definition
°C
Rel Hum Definition
%
Wind Dir Definition
10's deg

Wind Spd Definition
km/h
Visibility Definition
km
Stn Press Definition
kPa
Hmdx Definition


Wind Chill Definition


Weather Definition


TIME
00:00 -0.6 -2.3 88 14 10   98.05   -4 LegendNANA
01:00 1.0 -0.8 88 17 12   98.07     LegendNANA
02:00 2.0 0.1 88 20 13   98.06     LegendNANA
03:00 1.8 0.0 87 21 8   98.06     LegendNANA
04:00 3.1 -1.7 71 24 7   98.06     LegendNANA
05:00 3.5 -0.9 73 25 19   98.06     LegendNANA
06:00 3.5 -1.5 70 24 16   98.04     LegendNANA
07:00 2.8 -1.1 76 19 3   98.03     LegendNANA
08:00 2.7 -1.9 72 19 17   98.01     LegendNANA
09:00 3.1 -2.2 68 19 21   98.01     LegendNANA
10:00 3.9 -3.0 61 20 16   98.01     LegendNANA
11:00 4.5 -3.1 58 19 16   97.98     LegendNANA
12:00 5.7 -3.2 53 16 16   97.95     LegendNANA
13:00 6.4 -2.7 52 19 13   97.90     LegendNANA
14:00 7.0 -1.7 54 25 12   97.86     LegendNANA
15:00 7.5 -1.4 53 26 8   97.84     LegendNANA
16:00 7.6 -0.9 55 25 8   97.80     LegendNANA
17:00 6.6 -0.3 61 29 7   97.77     LegendNANA
18:00 6.6 -0.1 62 24 9   97.75     LegendNANA
19:00 5.0 0.2 71 7 8   97.73     LegendNANA
20:00 4.4 -1.0 68 9 11   97.70     LegendNANA
21:00 2.9 -0.3 80 12 11   97.67     LegendNANA
22:00 2.2 -0.6 82 15 9   97.66     LegendNANA
23:00 2.3 -0.1 84 16 16   97.65     LegendNANA

Notes on Data Quality.

Legend

  • E = Estimated
  • M = Missing
  • NA = Not Available
  • ‡ = Partner data that is not subject to review by the National Climate Archives
Date modified: